Temperature
16 16 16 16 20 21 22 21 20 19 19 18 17 18 20 20 20 18 13 13 13 12 12 13 13 13 13 13 13 13 13 13 13 13 13 13 13 13 13 14 14 14 14 14 14 14 14 14 14
15 16 16 18 20 21 21 20 19 19 18 16 16 17 18 17 14 13 12 13 12 12 12 12 13 13 13 13 13 13 13 13 13 13 13 13 13 13 13 13 14 14 13 13 13 13 14 14 14
15 16 17 19 20 22 21 19 19 17 15 16 16 16 17 16 13 12 12 12 12 12 12 12 13 12 12 12 13 13 12 12 13 13 13 13 13 13 13 13 13 13 13 13 13 13 13 14 14
15 15 17 19 20 20 19 19 17 17 16 15 16 16 14 12 12 12 12 12 12 12 12 12 12 12 12 12 12 12 12 12 12 12 12 12 12 13 13 13 13 13 13 13 13 13 13 13 13
15 17 19 19 19 18 18 16 16 17 17 16 16 17 15 12 12 12 12 12 12 12 12 12 12 12 12 12 12 12 12 12 12 12 12 12 12 12 12 12 12 13 13 13 13 13 13 13 13
15 17 19 19 19 17 17 15 16 17 16 15 15 16 14 11 12 12 12 12 12 12 12 11 12 12 12 12 12 12 12 12 12 12 12 12 12 12 12 12 12 12 12 13 13 12 13 13 13
16 17 18 19 18 17 16 14 15 16 16 15 14 16 14 11 11 12 11 11 11 11 11 11 11 11 11 11 11 11 12 12 12 12 12 12 12 12 12 12 12 12 12 12 12 12 12 12 12
14 17 17 17 17 17 15 13 13 14 15 13 12 15 14 11 11 11 11 11 11 11 11 11 11 11 11 11 11 11 11 11 11 11 11 11 11 11 12 11 12 12 12 12 12 12 12 12 12
13 16 17 17 16 16 14 13 12 11 12 11 11 12 11 11 11 10 10 10 10 11 11 11 10 10 10 10 11 11 11 11 11 11 11 11 11 11 11 11 11 11 11 11 11 11 11 12 12
14 16 16 15 15 14 13 13 12 12 13 12 11 10 10 10 10 10 10 10 10 10 10 10 10 10 10 10 10 10 11 11 11 11 11 11 11 11 11 11 11 11 11 11 11 11 11 11 11
13 14 13 12 12 12 12 12 11 12 13 13 12 11 10 10 10 9 9 9 10 10 10 10 10 10 10 10 10 10 10 10 10 10 10 10 10 10 10 10 10 11 11 11 11 11 11 11 11
12 12 11 11 10 10 11 11 11 11 12 11 10 10 9 9 9 9 9 9 9 9 9 9 9 9 9 9 9 9 9 9 10 10 10 10 10 10 10 10 10 10 10 10 10 10 10 10 10
12 11 10 10 9 9 10 10 11 10 10 9 9 9 9 9 9 9 9 9 9 9 9 9 9 9 9 9 9 9 9 9 9 9 9 9 9 9 9 9 9 9 9 10 10 10 9 10 10
11 10 10 10 10 9 10 10 10 10 9 9 9 9 9 9 8 8 8 8 8 9 9 9 9 9 9 9 9 9 9 9 9 9 9 9 9 9 9 9 9 9 9 9 9 9 9 9 9
9 11 11 10 10 9 10 11 11 10 9 9 9 8 8 8 8 8 8 8 8 8 9 9 9 8 8 8 8 8 8 8 8 8 8 8 8 8 8 8 8 9 9 9 9 9 9 9 9
11 12 12 11 10 9 10 12 12 9 8 9 9 8 8 8 8 8 8 8 8 8 8 8 8 8 8 8 8 8 8 8 8 8 8 8 8 8 8 8 8 8 8 8 8 8 8 8 8
12 12 12 12 10 10 10 11 11 9 8 9 9 8 8 8 7 7 7 8 8 8 8 8 8 8 8 8 8 8 7 8 8 8 8 8 8 8 7 8 7 7 7 8 8 8 8 8 8
12 12 11 11 10 9 10 10 11 9 8 9 9 8 8 7 7 7 7 7 8 8 7 7 7 7 7 7 7 7 7 7 7 7 7 7 7 7 7 7 7 7 7 7 7 7 7 7 7
10 11 11 11 10 9 10 10 10 10 9 9 9 8 8 7 7 6 7 7 7 7 7 7 7 7 7 7 7 7 7 7 7 7 7 7 7 7 7 7 7 7 7 7 7 7 7 7 7
9 10 10 10 9 9 9 9 10 10 9 9 8 8 8 7 7 6 6 6 6 6 7 7 7 7 7 6 6 6 6 6 6 6 6 6 6 6 6 6 6 6 6 6 6 6 6 6 6
9 10 10 9 9 8 8 10 10 10 9 8 8 7 7 6 6 6 5 6 6 6 6 6 6 6 6 6 6 6 6 6 6 6 6 6 6 6 6 6 6 6 6 6 6 6 6 5 5
9 9 8 8 8 9 8 10 11 10 9 9 8 7 7 6 5 5 5 5 5 6 6 6 6 6 6 6 5 5 5 5 5 5 5 5 5 5 5 5 5 6 6 5 5 5 5 5 5
8 8 7 7 8 8 8 8 11 10 9 9 9 7 6 6 5 5 5 5 5 5 5 5 5 5 5 5 5 5 5 5 5 5 5 5 5 5 5 5 5 5 5 5 5 5 5 5 4
7 7 7 7 8 8 9 9 11 10 10 10 9 7 6 5 5 4 4 4 5 5 5 5 5 5 5 5 5 4 4 4 4 4 4 4 4 4 4 4 4 5 4 4 4 4 4 4 4
7 8 9 9 8 9 8 8 10 10 9 9 8 7 6 5 4 4 4 4 4 5 5 5 4 4 4 4 4 4 4 4 4 4 4 4 4 4 4 4 4 4 4 4 4 4 4 4 3
7 8 8 9 10 10 8 8 10 9 8 7 7 6 5 5 4 4 4 4 4 4 4 4 4 4 4 4 4 4 3 3 3 3 3 3 3 3 3 4 4 4 4 4 3 3 3 3 3
7 7 7 7 7 7 9 9 9 8 8 7 7 6 5 4 4 4 4 4 4 4 4 4 4 4 4 3 3 3 3 3 3 3 3 3 3 3 3 3 3 3 3 3 3 3 3 3 3
6 7 6 7 7 9 10 9 10 8 8 8 7 6 5 4 4 3 3 3 3 3 3 3 3 3 3 3 3 3 3 3 2 2 2 3 3 3 3 3 3 3 2 2 2 2 2 2 2
5 5 6 7 7 8 9 11 10 8 8 7 7 6 5 4 3 3 3 3 3 3 3 3 3 3 3 3 3 2 2 2 2 2 2 2 2 3 2 2 2 2 2 2 2 2 2 2 2
6 6 6 7 6 6 8 9 8 8 7 7 6 5 5 4 3 3 3 3 3 3 3 3 2 2 2 2 2 2 2 2 2 2 2 2 2 2 2 2 2 2 2 2 2 2 2 2 2
Wind_Speed
5 3 2 3 4 5 9 6 4 5 4 2 1 1 2 1 1 2 4 4 3 4 4 5 5 5 5 6 6 6 6 6 6 5 5 5 6 5 5 5 5 5 5 5 5 5 6 6 6
3 1 3 3 6 9 8 7 8 5 3 3 2 2 2 2 3 4 4 3 3 4 4 4 5 4 5 5 5 5 5 5 5 5 5 6 5 4 4 4 4 4 5 5 4 4 4 5 5
1 1 3 4 6 9 7 6 6 4 3 3 3 1 0 2 3 3 3 3 3 4 4 5 5 4 4 4 5 5 4 4 4 4 5 5 5 4 3 3 3 4 4 4 5 4 4 4 4
2 2 3 6 10 7 4 4 4 6 4 3 3 3 2 2 2 2 4 4 4 4 4 5 5 4 4 4 4 4 3 3 3 4 4 4 5 4 3 3 3 4 4 3 4 4 3 3 3
1 3 6 7 9 5 3 2 4 6 5 4 4 3 3 3 2 3 4 5 4 4 4 5 5 4 3 3 3 4 4 3 3 4 3 4 4 4 3 3 3 3 2 2 2 3 3 3 2
3 4 6 10 9 5 4 3 4 5 4 3 4 4 3 4 3 3 4 5 4 4 4 4 4 3 3 3 3 3 3 3 3 3 3 3 3 3 3 2 2 1 1 1 1 2 3 3 3
3 4 6 7 7 6 4 3 5 5 5 3 2 3 4 4 2 3 4 4 4 4 3 2 2 2 2 2 2 2 2 2 3 3 3 3 3 3 3 3 2 1 1 1 1 2 2 2 2
1 3 4 6 7 5 4 3 2 4 3 1 2 4 3 3 3 4 4 4 3 2 2 1 1 1 1 1 1 1 1 2 2 2 2 2 2 2 3 3 3 2 1 1 1 1 1 2 2
2 4 6 5 5 4 4 3 2 1 2 2 2 2 2 4 5 4 4 3 2 2 1 1 0 0 1 1 0 0 1 1 0 0 1 1 1 1 1 3 3 2 1 1 1 1 1 2 1
3 5 5 2 2 2 3 3 2 3 5 4 4 3 2 4 5 5 4 4 3 2 1 1 1 1 1 1 1 1 1 1 1 1 1 1 2 2 2 1 2 2 1 1 1 1 2 3 2
2 3 3 2 1 2 3 3 3 5 6 6 6 4 4 5 5 5 4 4 3 3 2 1 1 2 2 2 2 1 1 1 2 2 2 2 2 2 2 1 1 2 2 2 2 2 2 2 2
2 2 2 2 1 2 4 3 4 6 6 4 4 3 5 6 6 6 5 4 3 3 3 2 2 2 2 2 2 2 2 2 2 2 2 2 1 2 2 2 2 2 2 2 2 2 3 3 3
3 2 1 1 1 2 3 5 6 8 7 5 4 5 6 7 7 6 5 5 4 3 4 3 2 3 2 2 2 2 2 3 2 2 2 2 2 2 2 2 2 2 2 2 2 3 3 4 4
2 2 2 2 3 2 4 6 6 8 5 4 5 6 6 7 7 6 6 6 5 5 4 4 3 3 3 3 3 3 3 3 3 3 3 3 3 2 3 3 3 2 3 3 3 3 3 4 3
2 2 3 3 4 3 4 7 8 6 4 5 5 5 6 7 7 7 6 6 6 5 4 4 4 3 3 3 4 3 3 3 3 3 3 3 3 3 3 3 3 3 3 3 3 3 3 3 4
2 3 4 2 3 3 5 8 4 3 5 6 6 6 6 6 7 7 6 6 6 5 5 4 3 4 4 4 4 3 3 4 3 3 3 4 4 4 3 3 3 3 3 3 3 3 3 3 4
3 5 6 4 3 3 6 9 5 4 6 7 7 6 6 6 6 6 6 6 6 5 5 4 4 4 4 4 3 4 3 3 3 3 3 4 4 4 4 3 3 3 3 3 3 3 3 3 4
5 6 6 6 2 4 8 11 9 7 8 9 8 7 6 7 6 5 5 5 5 4 4 4 4 4 3 3 3 3 3 3 3 3 4 4 4 4 4 3 4 4 3 3 3 3 3 3 3
4 7 8 7 3 5 10 13 12 9 9 9 8 7 6 7 5 4 4 4 3 3 3 4 4 3 3 3 3 3 3 3 3 3 4 5 4 4 4 4 4 4 4 4 4 3 4 3 2
6 8 8 6 4 5 9 13 11 8 8 8 7 7 7 7 5 4 4 3 3 3 3 4 4 4 4 4 3 3 3 3 4 4 4 5 5 4 4 4 3 3 3 4 3 4 3 2 2
8 9 8 8 7 6 7 9 8 6 6 6 6 6 6 6 6 5 4 4 3 3 4 3 4 4 4 3 2 2 2 3 3 4 4 4 5 5 5 4 4 3 3 3 3 4 4 3 2
7 6 7 7 6 5 4 7 6 6 5 5 6 5 5 5 6 5 5 4 4 4 3 4 4 4 4 4 4 4 4 4 4 4 4 4 5 4 4 4 4 4 3 4 4 4 4 4 3
4 3 5 6 7 7 6 7 6 4 6 6 5 4 5 5 5 5 5 5 4 3 3 4 4 3 4 4 5 5 5 4 4 4 4 4 4 4 4 4 4 4 3 4 4 4 4 4 4
3 2 3 4 5 7 8 8 7 5 6 6 4 3 4 4 4 4 4 3 3 3 3 3 3 3 3 4 4 5 5 5 5 5 4 4 3 3 4 4 4 4 4 4 4 4 5 5 5
3 2 2 3 5 6 3 7 8 4 5 5 5 4 3 3 3 3 3 3 3 3 3 3 3 3 3 3 4 4 5 5 5 5 5 4 3 3 4 4 4 4 4 4 4 4 5 5 5
5 4 3 5 5 5 4 8 5 3 3 4 4 3 2 2 3 3 3 3 3 3 3 3 3 3 3 3 3 3 4 4 4 5 5 5 4 4 4 4 5 4 4 4 4 4 5 5 5
4 5 2 3 4 6 6 6 6 5 4 3 3 2 2 2 3 3 3 3 3 3 3 3 3 3 3 3 3 4 4 4 4 5 5 4 4 4 4 5 5 4 5 5 5 4 5 5 5
3 3 4 4 4 6 7 7 5 5 5 3 2 2 3 3 3 3 3 3 3 3 3 3 3 3 3 3 3 3 4 4 5 5 5 5 5 4 4 4 4 4 4 5 4 4 4 4 4
5 5 5 4 4 5 6 5 2 5 4 4 3 3 3 3 3 3 3 3 3 3 3 3 3 3 3 3 4 4 4 4 4 4 5 5 4 4 5 4 4 5 5 5 4 4 4 5 5
6 7 7 5 5 5 6 6 1 3 3 3 4 4 4 3 3 3 3 3 3 3 3 3 3 3 3 3 4 4 4 4 4 4 5 5 5 4 5 4 5 5 5 5 5 5 5 5 5
Wind_Direction
323 305 239 213 212 221 231 214 202 176 176 146 111 200 200 201 288 70 90 105 104 123 121 124 105 90 81 75 70 64 54 49 44 42 40 45 51 54 57 58 51 47 46 44 52 52 48 50 53
319 267 211 213 226 226 224 207 200 187 147 134 147 180 175 140 57 91 119 111 123 120 118 115 107 97 88 79 73 67 57 50 44 40 43 41 41 47 48 52 53 48 43 40 46 54 48 47 51
287 263 210 206 224 234 222 191 191 162 143 170 160 170 215 114 110 117 108 137 136 123 119 107 109 100 89 80 71 62 57 50 44 41 40 35 30 36 41 39 47 47 41 38 45 47 42 43 49
226 188 204 225 226 235 234 176 165 169 170 182 180 158 139 68 88 97 121 142 137 126 121 113 111 105 92 78 67 56 49 48 47 43 35 30 30 28 34 37 47 47 40 36 38 36 37 39 45
230 209 211 222 230 222 211 193 188 193 183 177 195 186 154 111 88 110 134 141 135 124 116 117 106 102 94 80 65 51 49 51 45 36 32 29 28 27 26 36 50 50 40 32 33 28 23 29 28
191 215 222 227 221 209 202 200 200 209 196 181 200 202 160 123 121 130 144 145 135 123 115 116 113 99 85 74 64 52 43 44 42 37 32 24 21 20 21 23 29 62 48 36 31 28 9 15 15
214 218 234 231 221 214 199 189 212 215 210 197 208 202 162 150 126 147 152 145 135 126 124 120 130 130 111 80 58 46 35 32 37 41 34 26 23 19 15 8 9 41 45 32 32 26 11 359 352
254 219 222 221 221 215 173 177 215 233 226 166 222 227 185 156 148 154 154 146 136 133 132 130 138 150 162 146 80 37 22 14 29 42 35 26 28 31 18 3 5 7 19 3 10 10 353 339 333
235 226 228 220 218 202 169 193 191 253 212 193 220 280 39 126 148 156 163 164 158 150 148 140 159 220 248 245 217 192 51 23 335 26 33 358 331 328 340 358 352 345 3 353 330 296 313 296 283
217 226 232 240 233 203 188 222 219 211 225 227 222 216 165 155 168 178 189 194 199 209 216 204 241 268 273 275 253 245 257 263 266 273 283 285 309 314 310 339 336 324 300 277 290 280 262 269 268
201 224 205 215 229 219 218 235 238 240 245 247 244 218 187 191 196 206 214 219 225 225 238 253 263 254 252 260 263 267 268 269 269 278 276 270 284 295 295 297 267 276 260 271 271 263 276 279 283
182 203 220 213 223 233 238 240 245 248 262 296 277 233 204 207 212 218 225 233 238 253 246 256 272 266 253 257 260 266 271 271 273 277 278 270 277 288 293 290 288 285 281 285 283 289 279 272 266
207 201 221 233 242 253 248 250 261 261 265 275 260 230 222 226 227 229 234 240 242 249 254 249 256 259 256 250 256 261 268 270 269 267 265 265 270 275 282 286 288 286 289 276 279 279 279 271 265
172 181 227 258 241 239 251 263 260 261 258 244 233 233 233 234 235 237 240 246 248 248 257 251 245 250 249 247 250 252 252 254 261 260 264 262 263 269 276 277 280 282 284 282 272 273 274 275 269
178 219 240 235 234 227 256 260 242 251 241 239 238 241 244 246 245 242 245 250 253 256 256 259 243 246 248 249 250 250 245 245 250 255 256 259 260 261 268 274 274 277 277 275 268 265 270 272 269
207 225 242 211 219 220 240 261 237 222 232 247 248 247 251 251 252 250 247 250 253 257 256 260 249 242 247 251 247 246 244 244 248 254 257 256 251 250 259 268 271 270 270 268 264 259 263 266 271
218 246 254 246 216 223 230 260 257 236 247 255 255 251 251 255 258 258 250 247 247 249 250 254 254 242 248 253 247 247 249 248 248 249 253 256 255 251 253 260 264 263 265 265 265 260 261 268 276
244 252 260 261 233 237 246 258 267 262 253 258 258 253 250 254 260 262 255 246 245 248 247 246 256 247 245 247 247 246 249 250 250 249 249 252 251 250 252 256 254 255 255 257 258 263 256 262 276
259 258 267 272 273 263 257 265 273 269 256 255 254 251 250 254 263 267 258 249 250 250 248 242 253 246 234 235 238 243 250 254 254 251 249 249 250 247 252 259 256 253 246 248 254 261 252 256 269
247 261 270 277 273 267 271 271 270 260 248 247 249 253 257 260 261 261 262 251 248 249 251 252 259 246 234 237 240 247 254 259 261 258 257 253 251 246 248 249 249 254 250 247 252 252 246 252 243
246 251 267 277 295 258 279 269 243 242 235 242 249 256 258 257 258 257 255 256 257 258 256 258 265 251 236 236 235 237 249 255 253 255 256 256 251 247 246 246 250 252 255 256 253 245 229 231 244
256 252 259 265 268 264 260 275 247 232 231 237 249 258 265 261 256 255 255 259 262 270 269 263 269 250 234 225 224 227 241 257 264 263 261 261 252 249 249 252 253 250 252 255 251 244 234 227 236
262 280 253 253 252 262 238 252 261 214 229 240 248 259 267 264 255 252 252 256 261 271 275 269 272 253 239 232 229 232 244 256 265 263 262 265 265 260 257 254 254 253 253 254 251 244 241 235 236
242 250 239 234 241 250 236 236 262 224 227 237 243 260 270 264 258 256 259 262 270 281 285 286 281 261 248 239 236 237 244 254 262 262 262 263 265 263 261 259 256 255 253 253 247 243 243 239 235
214 237 258 240 231 246 200 235 251 244 235 239 251 270 281 265 256 257 270 276 282 291 294 294 287 269 257 244 242 245 249 254 255 258 260 259 260 260 259 254 254 251 250 257 254 245 242 239 237
208 221 239 266 270 275 226 239 246 235 253 254 250 255 274 269 255 255 263 270 276 281 286 288 288 270 262 251 250 252 254 255 258 262 262 257 256 260 263 257 255 256 254 251 243 243 243 241 240
194 209 245 267 283 271 252 251 262 224 238 246 247 260 284 282 274 272 266 270 276 277 277 279 279 268 265 258 254 253 256 258 262 265 263 259 261 264 259 257 254 253 254 252 245 245 245 243 242
242 180 185 217 258 266 264 254 240 210 227 238 272 290 292 286 276 279 281 277 278 280 278 281 272 267 264 261 258 258 257 259 261 260 261 264 267 267 262 260 255 253 251 249 244 248 248 247 249
186 194 211 216 248 260 273 267 209 208 213 223 251 265 274 278 279 279 280 280 277 280 281 280 278 279 275 268 265 265 263 263 263 263 265 267 267 267 264 260 252 249 246 247 242 246 245 245 249
223 217 205 226 235 239 266 275 144 212 214 229 265 280 275 279 281 278 278 281 284 284 282 273 275 277 277 272 269 267 266 263 263 267 269 268 265 263 261 255 249 247 245 245 240 242 244 246 249
Height
1510 1510 1512 1515 1514 1509 1505 1505 1506 1510 1512 1515 1516 1515 1513 1513 1515 1521 1523 1520 1521 1522 1523 1523 1524 1524 1524 1524 1524 1524 1524 1523 1523 1522 1522 1522 1521 1520 1520 1519 1519 1519 1519 1519 1519 1518 1518 1518 1518
1510 1511 1514 1514 1509 1505 1502 1504 1507 1509 1513 1516 1517 1517 1516 1517 1519 1520 1519 1519 1521 1522 1523 1523 1523 1524 1524 1524 1524 1523 1523 1523 1522 1522 1522 1521 1520 1520 1519 1519 1519 1518 1518 1518 1518 1518 1517 1517 1517
1510 1511 1514 1510 1505 1500 1499 1505 1507 1512 1515 1516 1516 1517 1517 1518 1519 1520 1519 1519 1521 1522 1522 1522 1523 1523 1523 1523 1523 1523 1523 1522 1522 1521 1521 1520 1520 1519 1519 1518 1518 1517 1517 1517 1517 1517 1516 1516 1516
1511 1513 1513 1508 1503 1502 1503 1507 1510 1513 1515 1516 1516 1517 1518 1519 1519 1519 1518 1519 1521 1521 1522 1522 1522 1523 1523 1523 1522 1522 1522 1521 1521 1521 1520 1519 1519 1518 1518 1517 1517 1516 1516 1516 1516 1516 1515 1515 1515
1510 1511 1508 1505 1503 1505 1508 1511 1512 1511 1513 1515 1516 1515 1517 1518 1517 1517 1518 1519 1520 1521 1521 1521 1521 1522 1522 1522 1521 1521 1521 1520 1520 1519 1519 1518 1518 1517 1517 1516 1516 1515 1515 1515 1514 1514 1514 1514 1513
1512 1509 1504 1501 1501 1506 1510 1512 1512 1512 1513 1515 1516 1515 1517 1517 1516 1517 1518 1519 1519 1520 1520 1520 1520 1521 1521 1521 1520 1520 1520 1519 1519 1518 1518 1517 1517 1516 1516 1515 1515 1514 1514 1513 1513 1513 1512 1512 1512
1511 1507 1501 1499 1502 1505 1509 1512 1512 1511 1512 1514 1516 1515 1516 1516 1516 1517 1517 1518 1519 1519 1519 1519 1520 1519 1519 1519 1519 1519 1518 1518 1517 1517 1516 1516 1515 1515 1514 1514 1513 1513 1512 1512 1511 1511 1511 1511 1510
1509 1508 1504 1502 1503 1505 1510 1512 1513 1513 1513 1515 1515 1514 1515 1516 1515 1516 1517 1517 1517 1518 1518 1518 1518 1518 1518 1518 1517 1517 1517 1516 1515 1515 1514 1514 1513 1513 1512 1512 1511 1511 1510 1510 1510 1509 1509 1509 1509
1509 1508 1502 1502 1504 1506 1511 1512 1513 1514 1514 1514 1514 1514 1514 1513 1514 1515 1516 1516 1516 1516 1516 1516 1516 1516 1516 1516 1515 1515 1515 1514 1514 1513 1512 1512 1511 1511 1510 1510 1509 1509 1509 1508 1508 1507 1507 1507 1507
1509 1504 1503 1507 1507 1508 1511 1512 1513 1513 1512 1512 1513 1512 1512 1512 1513 1513 1514 1514 1514 1514 1514 1514 1514 1514 1514 1514 1513 1513 1513 1512 1511 1511 1510 1510 1509 1509 1508 1508 1507 1507 1507 1506 1505 1505 1505 1505 1505
1508 1506 1508 1510 1511 1511 1511 1512 1513 1512 1509 1510 1510 1511 1510 1511 1511 1512 1512 1512 1513 1513 1512 1512 1512 1512 1512 1511 1511 1511 1510 1510 1509 1508 1508 1507 1507 1506 1506 1505 1505 1504 1504 1504 1503 1503 1502 1502 1502
1509 1510 1510 1510 1511 1511 1511 1511 1512 1511 1510 1510 1509 1509 1509 1509 1509 1510 1510 1511 1510 1510 1510 1510 1510 1510 1509 1509 1509 1508 1508 1507 1506 1506 1505 1505 1504 1504 1503 1503 1502 1502 1501 1501 1500 1500 1499 1499 1499
1509 1510 1511 1511 1511 1511 1511 1511 1510 1508 1508 1508 1507 1507 1507 1507 1507 1508 1508 1508 1508 1507 1507 1507 1507 1507 1507 1506 1506 1506 1505 1504 1504 1503 1502 1502 1501 1501 1500 1500 1499 1499 1498 1498 1497 1497 1497 1497 1496
1510 1510 1510 1510 1510 1510 1510 1509 1509 1505 1506 1506 1505 1505 1505 1505 1505 1505 1505 1505 1505 1505 1505 1505 1504 1504 1504 1503 1503 1503 1502 1501 1501 1500 1500 1499 1498 1498 1497 1497 1496 1496 1495 1495 1495 1494 1494 1494 1493
1511 1509 1508 1508 1508 1509 1509 1505 1504 1503 1504 1504 1503 1503 1502 1502 1502 1502 1502 1502 1502 1502 1502 1502 1502 1501 1501 1500 1500 1499 1499 1498 1498 1497 1496 1496 1495 1495 1494 1494 1493 1492 1492 1492 1491 1491 1491 1491 1490
1509 1506 1502 1504 1506 1507 1509 1498 1499 1502 1502 1501 1500 1500 1499 1499 1499 1499 1499 1499 1499 1499 1499 1499 1498 1498 1498 1497 1497 1496 1496 1495 1495 1494 1493 1493 1492 1491 1491 1490 1489 1489 1488 1488 1488 1488 1488 1488 1488
1504 1500 1498 1501 1505 1505 1504 1497 1498 1500 1499 1498 1498 1497 1496 1496 1496 1495 1495 1495 1495 1496 1496 1495 1495 1495 1494 1494 1493 1493 1492 1492 1491 1490 1490 1489 1488 1488 1487 1486 1486 1485 1485 1484 1485 1484 1484 1484 1484
1500 1498 1498 1498 1501 1503 1501 1495 1495 1497 1496 1495 1494 1494 1493 1492 1492 1492 1492 1492 1492 1492 1492 1492 1491 1491 1491 1490 1490 1489 1489 1488 1488 1487 1486 1486 1485 1484 1483 1483 1482 1482 1481 1481 1481 1481 1481 1481 1481
1502 1501 1498 1498 1501 1502 1496 1492 1491 1492 1492 1491 1490 1490 1490 1489 1489 1489 1489 1488 1488 1488 1488 1488 1487 1487 1487 1486 1486 1485 1485 1485 1484 1483 1483 1482 1481 1480 1480 1479 1478 1478 1478 1477 1477 1477 1477 1478 1478
1504 1501 1498 1498 1501 1500 1495 1490 1487 1487 1487 1487 1487 1487 1486 1487 1486 1486 1485 1485 1485 1485 1485 1484 1484 1484 1483 1483 1483 1482 1482 1481 1481 1480 1479 1478 1477 1476 1476 1476 1475 1474 1474 1474 1474 1474 1474 1474 1474
1501 1500 1498 1499 1499 1499 1497 1483 1481 1481 1483 1484 1484 1483 1483 1483 1483 1482 1482 1481 1481 1481 1481 1481 1481 1480 1480 1480 1479 1479 1478 1478 1477 1476 1475 1474 1474 1473 1473 1472 1471 1471 1471 1470 1470 1471 1471 1471 1471
1497 1499 1501 1500 1498 1490 1495 1480 1471 1475 1478 1479 1480 1480 1480 1480 1479 1479 1479 1478 1478 1478 1478 1478 1477 1477 1476 1476 1476 1475 1475 1474 1473 1472 1471 1470 1470 1469 1468 1468 1468 1468 1468 1468 1467 1467 1468 1468 1468
1498 1500 1500 1499 1496 1493 1490 1488 1466 1473 1473 1473 1475 1476 1477 1476 1476 1476 1475 1475 1475 1475 1475 1475 1474 1474 1473 1473 1472 1472 1471 1471 1470 1469 1468 1467 1466 1465 1465 1465 1465 1464 1465 1465 1464 1464 1465 1465 1466
1501 1500 1499 1498 1495 1490 1482 1482 1464 1465 1467 1468 1471 1473 1473 1474 1473 1473 1473 1473 1472 1472 1472 1471 1471 1470 1470 1469 1469 1468 1468 1467 1466 1466 1465 1463 1462 1462 1462 1461 1461 1461 1461 1461 1461 1461 1462 1462 1462
1499 1496 1491 1488 1484 1475 1483 1480 1465 1463 1466 1467 1468 1470 1471 1471 1471 1470 1470 1469 1469 1468 1468 1468 1467 1467 1466 1466 1465 1465 1465 1464 1463 1462 1461 1460 1459 1459 1458 1458 1458 1458 1458 1458 1458 1458 1459 1459 1459
1497 1494 1492 1485 1474 1468 1479 1472 1461 1465 1466 1467 1467 1468 1468 1468 1468 1467 1467 1466 1466 1466 1465 1465 1464 1464 1463 1463 1462 1462 1461 1461 1460 1459 1458 1457 1457 1456 1456 1455 1455 1455 1455 1455 1455 1455 1455 1455 1455
1495 1494 1495 1493 1491 1484 1466 1464 1462 1462 1463 1464 1465 1465 1466 1466 1465 1465 1464 1464 1463 1463 1462 1462 1461 1461 1460 1460 1459 1459 1458 1457 1457 1456 1455 1454 1454 1453 1452 1452 1452 1452 1452 1452 1452 1451 1451 1451 1451
1497 1494 1496 1493 1485 1471 1459 1458 1454 1457 1458 1460 1462 1462 1463 1463 1463 1462 1462 1461 1461 1460 1460 1459 1459 1458 1457 1457 1456 1455 1455 1454 1454 1453 1452 1451 1450 1450 1449 1448 1448 1448 1448 1448 1448 1448 1448 1448 1448
1496 1496 1492 1488 1486 1476 1461 1451 1451 1454 1456 1458 1459 1460 1461 1461 1460 1459 1459 1459 1459 1458 1457 1456 1456 1455 1454 1453 1453 1452 1452 1451 1450 1449 1448 1447 1447 1446 1445 1445 1445 1445 1445 1445 1445 1444 1445 1445 1444
1491 1489 1489 1486 1484 1482 1470 1457 1454 1455 1456 1457 1458 1459 1459 1459 1458 1457 1457 1456 1456 1455 1454 1453 1453 1452 1451 1450 1449 1449 1448 1447 1447 1446 1445 1444 1443 1443 1442 1442 1441 1441 1441 1441 1441 1441 1441 1441 1441